This is the latest recevied weather packets stored in our database for station/object F1AGU-13. If no packets are shown the sender has not sent any weather packets the latest 10 day(s).
| Time | Temp. | Humidity | Pressure | Rain* | Wind** | Luminosity | Snow |
|---|---|---|---|---|---|---|---|
| 1787824816 | 23.89° C | 71% | 1016.4 hPa | 0 mm | - | - | - |
| 1787824215 | 23.33° C | 68% | 1016.4 hPa | 0 mm | - | - | - |
| 1787823615 | 22.78° C | 70% | 1016.1 hPa | 0 mm | - | - | - |
| 1787823015 | 22.78° C | 67% | 1016.1 hPa | 0 mm | - | - | - |
| 1787822416 | 22.78° C | 71% | 1016.1 hPa | 0 mm | - | - | - |
| 1787821815 | 22.22° C | 70% | 1016 hPa | 0 mm | - | - | - |
| 1787821215 | 22.78° C | 70% | 1016 hPa | 0 mm | - | - | - |
| 1787820615 | 22.22° C | 71% | 1016 hPa | 0 mm | - | - | - |
| 1787820015 | 21.67° C | 72% | 1015.8 hPa | 0 mm | - | - | - |
| 1787819417 | 21.67° C | 71% | 1015.9 hPa | 0 mm | - | - | - |
| 1787818817 | 21.11° C | 71% | 1016 hPa | 0 mm | - | - | - |
| 1787818217 | 21.11° C | 72% | 1016 hPa | 0 mm | - | - | - |
| 1787817617 | 20.56° C | 73% | 1016 hPa | 0 mm | - | - | - |
| 1787817017 | 20° C | 74% | 1015.9 hPa | 0 mm | - | - | - |
| 1787816417 | 19.44° C | 79% | 1015.8 hPa | 0 mm | - | - | - |
| 1787815817 | 19.44° C | 80% | 1015.9 hPa | 0 mm | - | - | - |
| 1787815215 | 18.89° C | 80% | 1015.7 hPa | 0 mm | - | - | - |
| 1787814617 | 18.89° C | 79% | 1015.9 hPa | 0 mm | - | - | - |
| 1787814017 | 18.89° C | 76% | 1015.9 hPa | 0 mm | - | - | - |
| 1787813417 | 19.44° C | 74% | 1016.1 hPa | 0 mm | - | - | - |
| 1787812817 | 20° C | 70% | 1016.3 hPa | 0 mm | - | - | - |
| 1787812217 | 20° C | 70% | 1016.3 hPa | 0 mm | - | - | - |
| 1787811617 | 20° C | 69% | 1016.3 hPa | 0 mm | - | - | - |
| 1787811017 | 19.44° C | 70% | 1016.5 hPa | 0 mm | - | - | - |
| 1787810417 | 19.44° C | 67% | 1016.3 hPa | 0 mm | - | - | - |
* Rain latest hour (hover to see other rain measurements)
** Current wind speed in m/s (hover to see current wind gust speed)